Погода в Нючёпинге

Швеция     58°45′33″N   16°59′54″E
темп.,
°C
ветер,
м/с
пор.,
м/с
влажн.,
%
обл.,
%
осадки,
мм/ч
давл.,
гПа
погр.,
м
9 мая, вс
вс923:00+4ююз118380 0.0 101214
02:00+3зюз258099 0.0 1013110
05:00+3юз2279100 0.0 101349
08:00+7ю3763100 0.0 1012377
11:00+8ююв51066100 0.0 1011980
14:00+5ююв61394100 1.4 1010984
17:00+6ююв51097100 2.6 1008493
20:00+7ююв3997100 2.8 1007282
10 мая, пн
пн1023:00+7ю21097100 0.0 1007163
02:00+10ююз21097100 0.0 1008213
05:00+9ююв2797100 0.4 1008165
08:00+9ююв41296100 2.3 1008276
11:00+12ю51084100 0.4 1008350
14:00+16ююв51068100 0.4 1008296
17:00+12ю61472100 0.0 1009268
20:00+10ю51878100 0.0 1010472
11 мая, вт
вт1123:00+8ююв41591100 0.0 1010283
02:00+8ю399543 0.0 1011173
05:00+8ю2397100 0.0 101252
08:00+14ююв0177100 0.0 1013230
11:00+18юв3265100 0.0 1014629
14:00+16юв3671100 0.0 1014390
17:00+12юв4982100 0.0 1015367
20:00+11вюв2489100 0.0 1014156
12 мая, ср
ср1223:00+10в2794100 0.0 1015132
02:00+9вюв3109335 0.0 1014238
05:00+9юв4129015 0.0 1014309
08:00+12юв510732 0.0 1015397
11:00+14юв511603 0.0 1015595
14:00+16юв411585 0.0 1015640
17:00+15юв410645 0.0 1015431
20:00+11вюв310805 0.0 1014244
13 мая, чт
чт1323:00+9в27920 0.0 1015130
02:00+9всв26923 0.0 1014106
05:00+8в28955 0.0 1014188
08:00+12юв478483 0.0 1014409
11:00+13ююв366525 0.0 1014594
14:00+16юв34545 0.0 1013757
17:00+15юв335698 0.0 1012605
20:00+12ю11745 0.0 101019